Date String (YYYY-MM-DD hh:mm:ss) UTC,Instrument flags,Ambient pressure (hPa),Sample flow (lpm),Bypass flow (lpm),Sample temperature (°C),Ambient temperature (°C),ASC tube jacket temperature (°C),LED temperature (°C),Box temperature (°C),Sample RH (%),Span deviation,Mass concentration (μg/m³),Mass concentration (μg/m³),Mass concentration (μg/m³)
DateTimeUTC,F1_M11,P_M11,Q1_M11,Q2_M11,T1_M11,T2_M11,T3_M11,T4_M11,T5_M11,U1_M11,ZSPAN_M11,X0_M11,X2_M11,X1_M11
2022-11-16 14:00:00,,0834.3,5.00,0.00,22.0,20.5,00.0,30.9,23.8,06.8,0000.0,0002.75,0001.35,0001.17
2022-11-16 14:01:00,,0834.3,5.00,0.00,22.0,20.4,00.0,30.9,23.7,06.9,0000.0,0002.77,0001.35,0001.16
2022-11-16 14:02:00,,0834.3,5.00,0.00,21.9,20.3,00.0,30.9,23.7,06.9,0000.0,0002.69,0001.33,0001.15
2022-11-16 14:03:00,,0834.3,5.00,0.00,21.9,20.3,00.0,30.9,23.7,06.9,0000.0,0002.61,0001.32,0001.15
2022-11-16 14:04:00,,0834.4,4.99,0.00,21.9,20.8,00.0,30.9,23.8,06.9,0000.0,0002.12,0001.32,0001.15
2022-11-16 14:05:00,,0834.5,5.00,0.00,22.0,21.8,00.0,30.8,24.0,06.8,0000.0,0001.92,0001.32,0001.15
2022-11-16 14:06:00,,0834.4,5.00,0.00,22.1,22.2,00.0,30.8,24.1,06.7,0000.0,0001.79,0001.28,0001.13
2022-11-16 14:07:00,,0834.4,4.99,0.00,22.1,21.9,00.0,30.9,24.1,06.7,0000.0,0001.70,0001.25,0001.12
2022-11-16 14:08:00,,0834.4,5.01,0.00,22.1,21.5,00.0,30.9,24.0,06.7,0000.0,0001.63,0001.22,0001.09
2022-11-16 14:09:00,,0834.4,5.00,0.00,22.1,21.2,00.0,31.0,23.9,06.7,0000.0,0001.63,0001.21,0001.08
2022-11-16 14:10:00,,0834.4,5.00,0.00,22.1,20.8,00.0,31.0,23.8,06.7,0000.0,0001.55,0001.18,0001.06
2022-11-16 14:11:00,,0834.4,5.00,0.00,22.0,20.5,00.0,31.0,23.7,06.8,0000.0,0001.56,0001.17,0001.05
2022-11-16 14:12:00,,0834.5,5.00,0.00,22.0,20.3,00.0,31.0,23.7,06.8,0000.0,0001.58,0001.17,0001.03
2022-11-16 14:13:00,,0834.5,5.01,0.00,21.9,20.3,00.0,30.9,23.7,06.8,0000.0,0001.59,0001.17,0001.03
2022-11-16 14:14:00,,0834.5,5.00,0.00,21.9,20.3,00.0,30.9,23.7,06.9,0000.0,0001.55,0001.14,0001.01
2022-11-16 14:15:00,,0834.5,5.00,0.00,21.9,20.3,00.0,30.9,23.7,06.9,0000.0,0001.49,0001.11,0000.99
2022-11-16 14:16:00,,0834.5,5.00,0.00,21.9,20.3,00.0,30.9,23.7,06.8,0000.0,0001.43,0001.08,0000.98
2022-11-16 14:17:00,,0834.5,5.00,0.00,21.9,20.3,00.0,30.9,23.7,06.8,0000.0,0001.43,0001.08,0000.98
2022-11-16 14:18:00,,0834.6,5.00,0.00,21.9,20.5,00.0,30.9,23.7,07.0,0000.0,0001.45,0001.08,0000.98
2022-11-16 14:19:00,,0834.6,5.01,0.00,22.0,21.4,00.0,30.8,23.8,06.9,0000.0,0001.46,0001.08,0000.97
2022-11-16 14:20:00,,0834.6,4.98,0.00,22.1,22.3,00.0,30.8,24.1,06.8,0000.0,0001.46,0001.08,0000.97
2022-11-16 14:21:00,,0834.7,4.99,0.00,22.1,22.2,00.0,30.9,24.1,06.8,0000.0,0001.46,0001.08,0000.98
2022-11-16 14:22:00,,0834.7,5.01,0.00,22.1,21.8,00.0,30.9,24.1,06.8,0000.0,0001.43,0001.07,0000.98
2022-11-16 14:23:00,,0834.7,5.00,0.00,22.1,21.5,00.0,31.0,24.0,06.8,0000.0,0001.45,0001.08,0000.98
2022-11-16 14:24:00,,0834.7,4.99,0.00,22.1,21.3,00.0,31.0,24.0,06.8,0000.0,0001.57,0001.10,0000.98
2022-11-16 14:25:00,,0834.7,5.00,0.00,22.1,21.1,00.0,31.0,24.0,06.8,0000.0,0001.67,0001.12,0000.99
2022-11-16 14:26:00,,0834.7,5.00,0.00,22.1,21.0,00.0,31.0,24.0,06.9,0000.0,0001.73,0001.12,0000.99
2022-11-16 14:27:00,,0834.7,5.00,0.00,22.1,20.9,00.0,31.0,23.9,07.1,0000.0,0001.81,0001.14,0001.00
2022-11-16 14:28:00,,0834.7,5.01,0.00,22.1,20.8,00.0,31.0,23.9,07.2,0000.0,0001.86,0001.16,0001.01
2022-11-16 14:29:00,,0834.7,5.01,0.00,22.1,20.7,00.0,31.0,23.9,07.1,0000.0,0001.91,0001.20,0001.03
2022-11-16 14:30:00,,0834.7,4.98,0.00,22.1,20.7,00.0,31.0,23.9,07.2,0000.0,0002.01,0001.25,0001.05
2022-11-16 14:31:00,,0834.7,5.00,0.00,22.1,20.7,00.0,31.0,23.9,07.3,0000.0,0002.03,0001.28,0001.07
2022-11-16 14:32:00,,0834.8,5.00,0.00,22.1,20.8,00.0,31.0,23.8,07.3,0000.0,0002.05,0001.29,0001.08
2022-11-16 14:33:00,,0834.8,5.01,0.00,22.0,20.8,00.0,31.0,23.8,07.4,0000.0,0002.34,0001.30,0001.08
2022-11-16 14:34:00,,0834.8,5.00,0.00,22.0,20.8,00.0,31.0,23.8,07.6,0000.0,0002.38,0001.31,0001.10
2022-11-16 14:35:00,,0834.8,4.99,0.00,22.0,20.8,00.0,30.9,23.8,07.5,0000.0,0002.26,0001.31,0001.13
2022-11-16 14:36:00,,0834.8,5.00,0.00,22.0,20.8,00.0,30.9,23.8,07.4,0000.0,0002.16,0001.31,0001.16
2022-11-16 14:37:00,,0834.9,5.01,0.00,22.1,21.6,00.0,30.9,24.0,07.5,0000.0,0002.13,0001.32,0001.17
2022-11-16 14:38:00,,0835.0,5.00,0.00,22.2,22.5,00.0,30.9,24.2,07.5,0000.0,0002.10,0001.34,0001.20
2022-11-16 14:39:00,,0834.9,4.99,0.00,22.3,22.4,00.0,31.0,24.3,07.5,0000.0,0002.14,0001.36,0001.22
2022-11-16 14:40:00,,0834.9,5.00,0.00,22.3,22.1,00.0,31.0,24.3,07.4,0000.0,0002.15,0001.36,0001.21
2022-11-16 14:41:00,,0835.0,5.00,0.00,22.3,21.8,00.0,31.1,24.3,07.4,0000.0,0002.07,0001.32,0001.20
2022-11-16 14:42:00,,0835.0,5.00,0.00,22.3,21.6,00.0,31.1,24.2,07.6,0000.0,0002.78,0001.34,0001.20
2022-11-16 14:43:00,,0835.0,5.00,0.00,22.3,21.4,00.0,31.1,24.2,07.6,0000.0,0002.94,0001.37,0001.22
2022-11-16 14:44:00,,0835.0,5.00,0.00,22.3,21.3,00.0,31.1,24.2,07.6,0000.0,0002.76,0001.39,0001.23
2022-11-16 14:45:00,,0835.0,5.00,0.00,22.3,21.2,00.0,31.1,24.1,07.7,0000.0,0002.69,0001.40,0001.24
2022-11-16 14:46:00,,0835.0,5.00,0.00,22.3,21.2,00.0,31.1,24.1,07.7,0000.0,0002.71,0001.41,0001.23
2022-11-16 14:47:00,,0835.0,5.00,0.00,22.3,21.1,00.0,31.1,24.1,07.6,0000.0,0002.74,0001.42,0001.23
2022-11-16 14:48:00,,0835.0,5.00,0.00,22.3,21.1,00.0,31.1,24.0,07.6,0000.0,0002.77,0001.43,0001.22
2022-11-16 14:49:00,,0835.0,5.01,0.00,22.3,21.1,00.0,31.1,24.0,07.4,0000.0,0003.48,0001.49,0001.23
2022-11-16 14:50:00,,0835.0,5.00,0.00,22.3,21.0,00.0,31.1,24.0,07.1,0000.0,0005.49,0001.67,0001.24
2022-11-16 14:51:00,,0835.0,4.99,0.00,22.3,21.0,00.0,31.1,24.0,07.1,0000.0,0006.15,0001.82,0001.26
2022-11-16 14:52:00,,0835.0,5.00,0.00,22.2,21.0,00.0,31.1,24.0,07.1,0000.0,0006.55,0001.92,0001.28
2022-11-16 14:53:00,,0835.0,4.99,0.00,22.2,21.0,00.0,31.1,24.0,07.0,0000.0,0005.91,0001.92,0001.27
2022-11-16 14:54:00,,0835.0,5.01,0.00,22.2,21.0,00.0,31.1,24.0,07.0,0000.0,0005.79,0001.90,0001.27
2022-11-16 14:55:00,,0835.0,5.01,0.00,22.2,21.0,00.0,31.1,24.0,07.5,0000.0,0005.94,0001.93,0001.27
2022-11-16 14:56:00,,0835.0,5.00,0.00,22.2,20.9,00.0,31.1,24.0,07.8,0000.0,0006.64,0002.06,0001.28
2022-11-16 14:57:00,,0835.0,5.00,0.00,22.2,20.9,00.0,31.1,24.0,07.9,0000.0,0007.00,0002.15,0001.31
2022-11-16 14:58:00,,0835.1,5.00,0.00,22.2,20.9,00.0,31.1,24.0,07.8,0000.0,0007.34,0002.22,0001.31
2022-11-16 14:59:00,,0835.0,5.00,0.00,22.2,20.9,00.0,31.1,24.0,07.9,0000.0,0008.11,0002.35,0001.33
